SCP
-0 -0 -0 -0 0 0 0 -0 -0 -0 -0 -0 -0 -0 -0 -0 -0 0 0 -0 0 0 0 0 0 0 0 0 0 0 0 0 0 0 0 -0 0 0 0 0 0 0 0 0 0
-0 -0 -0 -0 0 0 -0 -0 -0 -0 -0 -0 -0 -0 -0 -0 0 0 0 0 -0 0 0 0 0 0 0 0 0 0 0 0 0 0 0 -0 -0 -0 0 0 0 0 0 0 0
-0 -0 -0 -0 -0 0 0 0 -0 0 0 0 0 0 0 0 0 0 0 0 0 0 0 0 0 0 0 0 0 0 0 0 0 0 0 0 0 -0 -0 0 0 0 0 0 0
-0 -0 -0 -0 -0 0 0 0 0 0 0 0 0 0 0 0 0 0 0 0 0 0 0 0 -0 0 0 0 0 0 0 0 0 0 0 0 0 0 0 0 0 0 0 0 0
-0 -0 -0 -0 -0 0 0 0 0 0 0 0 0 0 0 0 0 0 0 0 0 0 0 0 0 0 0 -0 -0 0 0 0 -0 -0 -0 -0 0 0 0 0 -0 0 0 0 -0
-0 -0 -0 -0 -0 -0 0 0 0 0 0 0 0 0 0 0 0 0 0 0 0 0 0 0 0 0 0 0 0 0 0 0 0 0 0 0 0 0 0 0 0 0 0 0 0
-0 -0 -0 -0 -0 -0 0 0 0 0 -0 0 0 -0 0 0 0 0 0 0 0 0 0 0 0 0 0 0 0 0 0 0 0 0 0 -0 0 -0 -0 0 0 0 0 0 0
-0 -0 -0 -0 -0 -0 -0 0 0 0 0 -0 -0 0 0 0 0 0 0 0 0 0 0 0 0 0 0 0 0 0 0 0 0 0 0 0 -0 -0 0 0 0 0 0 0 0
-0 -0 -0 -0 -0 -0 -0 0 0 -0 0 0 0 0 0 0 0 0 0 0 0 0 0 0 0 0 0 0 0 0 0 0 0 -0 -0 -0 0 0 0 0 0 0 0 0 0
-0 -0 -0 -0 -0 -0 -0 0 0 -0 0 0 0 0 0 0 0 0 0 0 0 0 0 0 0 0 0 0 0 0 0 0 0 -0 0 0 0 0 -0 -0 -0 0 0 0 0
-0 -0 -0 -0 -0 0 0 -0 0 0 0 0 0 0 0 0 0 0 0 0 0 0 0 0 0 0 0 0 0 0 0 0 0 0 0 0 0 -0 -0 0 0 0 0 0 0
-0 -0 -0 -0 0 0 0 0 0 0 0 0 0 0 0 0 0 0 0 0 0 0 0 0 0 0 0 0 0 0 0 0 0 0 0 0 0 0 -0 0 0 0 0 0 0
-0 -0 -0 -0 -0 0 0 0 0 0 0 0 0 0 0 0 0 0 0 0 0 0 0 0 0 0 0 0 0 0 0 0 0 0 0 0 0 0 0 0 0 -0 -0 0 0
-0 -0 -0 -0 0 0 0 0 0 0 0 -0 0 0 0 0 0 0 0 0 0 0 0 0 0 0 0 0 0 0 0 0 0 0 0 0 -0 0 0 0 0 0 0 0 0
-0 -0 0 0 0 0 0 0 0 0 0 0 0 0 0 0 0 0 0 0 0 0 0 0 0 0 0 0 0 0 0 0 0 0 0 0 0 0 0 0 0 0 0 0 0
-0 -0 0 0 0 0 0 0 0 0 0 0 0 0 0 0 0 0 0 0 0 0 0 0 0 0 0 0 0 -0 0 0 0 0 0 0 0 0 0 -0 0 0 0 -0 -0
-0 -0 0 0 0 0 0 0 0 0 0 0 0 0 0 0 0 0 0 0 0 0 0 0 0 0 0 0 0 0 0 0 0 0 0 0 0 0 0 0 -0 -0 0 0 -0
-0 0 0 -0 -0 0 0 0 0 0 0 0 0 -0 0 0 0 0 0 0 0 0 0 0 0 0 0 0 0 0 0 0 0 0 0 0 0 0 0 0 -0 -0 -0 0 -0
-0 0 0 -0 0 0 0 0 0 0 0 0 0 0 0 0 0 0 0 0 0 0 0 0 0 0 0 0 0 0 0 0 0 0 0 0 0 0 0 0 0 0 0 0 0
0 0 0 -0 0 0 0 0 0 0 0 0 0 0 0 0 0 0 0 0 0 0 0 0 0 0 0 0 0 0 0 0 0 0 0 0 0 0 0 0 0 -0 -0 -0 0
0 0 -0 0 0 0 0 0 0 0 0 0 0 0 0 0 0 0 0 0 0 0 0 0 0 0 0 0 0 0 0 0 0 0 0 0 0 0 0 -0 -0 -0 0 0 -0
0 0 0 0 0 0 0 0 0 0 0 0 0 0 0 0 0 0 0 0 0 0 0 0 0 0 0 0 0 0 0 0 0 0 0 -0 0 -0 0 0 0 0 0 0 -0
0 0 0 0 0 0 0 0 0 0 0 0 0 0 0 0 0 0 0 0 0 0 0 0 0 0 0 0 0 0 0 0 0 0 0 0 0 0 0 0 0 0 0 -0 -0
0 0 0 0 0 0 0 0 0 0 0 0 0 0 0 0 0 0 0 0 0 0 0 0 0 0 0 0 0 0 0 0 0 0 -0 0 -0 0 0 0 0 0 0 0 -0
0 0 0 0 0 0 0 0 0 0 0 0 0 0 0 0 0 0 0 0 0 0 0 0 0 0 0 0 0 0 0 0 0 0 0 0 -0 0 0 0 0 0 0 -0 -0
0 0 0 0 0 0 0 0 0 0 0 0 0 0 0 0 0 0 0 0 0 0 0 0 0 0 0 0 0 0 0 0 0 0 0 0 -0 0 0 0 0 0 0 -0 0
0 0 0 0 0 0 0 0 0 0 0 0 0 0 0 0 0 0 0 0 0 0 0 0 0 0 0 0 0 0 0 0 0 0 0 -0 -0 0 -0 0 0 0 -0 -0 0
Wind_Speed_500mb
20 17 18 19 20 18 18 20 18 14 8 17 20 18 21 23 24 21 21 20 22 27 31 29 18 15 8 12 9 7 9 1 6 13 9 17 18 39 32 37 23 31 22 22 24
22 17 18 19 21 22 21 19 17 13 14 20 19 13 12 17 23 31 23 24 28 35 38 45 52 26 10 10 6 10 8 12 9 6 10 4 9 20 24 41 30 39 32 35 35
24 17 17 19 22 23 22 17 15 14 19 20 15 7 13 15 14 19 25 28 30 36 34 40 41 24 12 13 23 9 5 7 12 19 18 10 6 8 5 14 38 33 36 41 37
26 20 18 20 22 23 19 13 14 16 18 16 9 8 14 15 7 17 21 23 29 26 29 38 42 29 11 12 23 4 14 9 21 34 30 20 36 10 16 37 45 40 37 35 38
28 23 20 21 24 23 15 11 15 19 18 14 10 12 12 7 6 13 21 21 21 23 28 35 37 25 11 15 33 3 10 38 53 59 55 48 37 44 35 69 58 50 41 45 40
27 23 22 24 24 20 12 12 16 17 14 10 11 18 8 5 9 14 15 26 33 11 19 19 15 21 14 19 2 14 38 43 41 49 46 20 36 25 37 42 41 46 49 53 52
25 24 25 27 24 16 14 14 13 11 7 5 12 21 8 8 3 8 18 24 22 24 20 22 18 10 12 14 13 16 18 25 34 25 12 25 19 8 41 51 48 47 48 41 43
23 24 25 28 22 16 13 12 11 8 2 6 14 23 10 6 6 5 11 14 19 10 24 25 24 26 13 13 13 12 3 6 15 11 22 4 19 18 40 56 59 53 54 65 68
20 21 22 24 20 17 12 6 4 5 6 13 17 15 11 6 9 8 17 9 20 20 26 35 36 31 16 5 11 8 10 11 13 16 10 9 19 13 43 50 54 67 76 71 74
17 14 17 18 15 18 19 12 14 14 18 25 23 16 6 11 7 22 10 11 18 20 31 37 9 2 8 10 10 15 9 12 14 12 8 6 19 16 32 45 53 65 76 80 76
17 12 9 10 9 14 23 19 27 5 20 31 36 31 40 6 20 29 32 21 14 13 6 16 12 10 14 17 23 15 13 16 14 8 10 6 21 27 22 46 53 61 56 59 72
25 10 7 3 3 8 15 20 26 26 22 38 41 43 41 37 33 44 10 17 4 3 11 14 7 10 21 17 17 23 17 31 21 7 3 12 38 20 15 18 28 35 43 41 57
32 14 1 6 4 12 20 18 16 29 9 25 14 21 27 22 38 40 26 18 6 1 10 6 19 27 21 19 23 19 18 20 16 11 3 9 26 24 23 4 20 34 42 36 44
35 17 4 8 5 17 24 23 31 29 8 12 5 6 14 24 12 24 24 23 4 13 12 9 15 15 21 9 15 6 21 12 24 17 7 9 33 15 16 12 9 30 44 44 59
33 18 3 7 7 12 21 20 22 15 6 4 6 13 16 10 26 21 21 14 14 16 6 21 8 9 8 4 6 8 22 15 15 7 1 6 13 11 11 11 17 23 39 46 54
31 16 4 12 5 15 21 26 9 9 5 7 8 10 9 9 13 29 6 16 21 7 5 6 8 6 6 6 5 15 16 13 6 4 5 2 4 10 6 13 15 33 43 36 49
29 14 8 12 7 16 23 6 9 7 9 11 9 11 9 14 14 21 13 13 7 11 6 7 2 3 16 12 10 20 13 9 11 9 8 4 16 16 10 11 9 15 34 43 49
28 8 7 12 1 15 20 9 7 3 8 9 9 13 9 20 14 21 18 17 12 7 4 7 11 5 13 6 8 10 8 7 10 6 27 9 11 8 11 21 11 13 27 37 42
22 2 9 6 9 14 4 9 2 6 8 8 10 9 11 26 13 16 14 6 9 13 6 9 7 13 6 3 6 9 4 7 0 6 5 7 11 13 16 14 12 30 34 39 48
13 9 8 6 13 1 9 5 8 4 4 5 7 6 9 10 12 15 7 6 4 4 7 6 14 11 0 11 5 4 7 5 5 6 9 9 10 15 12 12 14 15 21 35 46
12 6 8 6 9 2 5 3 7 27 4 4 2 4 4 6 6 7 10 17 1 7 4 5 6 9 7 5 16 10 6 6 6 6 6 8 10 8 28 11 15 8 19 35 49
15 6 7 10 6 5 5 7 16 18 19 4 6 4 3 7 7 6 10 6 34 13 7 5 6 8 14 35 20 12 13 7 7 10 11 15 25 24 5 7 7 12 33 45 56
19 13 15 8 6 7 12 9 5 12 13 9 4 7 4 5 8 7 13 19 27 16 7 6 4 8 20 12 10 2 8 10 7 4 13 13 14 13 27 6 10 24 43 46 52
16 9 12 15 11 5 9 10 13 28 6 13 2 6 7 5 7 14 25 14 31 41 38 10 10 17 24 29 9 27 34 31 12 11 25 32 36 46 15 12 22 46 43 40 60
18 8 13 9 10 17 6 5 9 12 14 21 10 11 9 9 9 14 9 17 17 40 6 8 14 13 21 29 23 31 39 47 34 34 28 39 36 33 16 12 27 34 44 72 79
11 15 16 23 27 17 14 10 10 14 5 8 9 16 12 11 11 10 8 9 17 13 13 5 13 9 17 25 28 41 41 44 43 26 12 14 32 15 10 22 39 52 58 74 72
20 17 7 13 13 7 5 10 12 19 15 29 20 11 10 5 26 42 55 63 50 24 31 10 7 4 21 13 23 20 27 14 10 8 8 16 29 13 20 28 52 63 72 80 66
Wind_Direction_500mb
26 33 39 43 42 36 20 16 16 16 73 126 120 103 84 66 48 53 74 74 44 30 19 12 13 0 299 273 245 170 65 18 337 331 269 351 13 350 348 3 4 352 357 352 3
25 34 38 40 34 27 21 25 32 47 110 129 127 106 64 33 49 56 86 67 38 22 25 20 12 7 331 288 216 112 105 219 221 251 264 181 21 327 341 337 335 329 311 322 321
32 39 36 34 27 20 20 31 52 80 120 132 130 92 17 16 73 63 74 62 42 26 22 15 8 21 48 20 19 336 174 188 286 306 301 318 229 291 241 295 296 296 302 304 312
39 44 40 29 20 16 18 40 72 104 128 135 112 37 16 30 94 49 75 53 36 25 18 13 21 23 23 356 356 5 322 349 318 325 329 313 315 285 265 269 284 276 282 291 288
39 42 41 26 13 11 25 67 94 115 123 114 81 24 25 47 56 64 45 27 27 32 7 3 22 12 0 333 348 59 323 320 319 319 321 320 311 291 280 288 283 281 283 294 280
39 42 31 19 11 14 54 97 117 119 118 92 40 22 39 27 30 39 5 6 0 333 7 358 351 341 317 314 334 298 310 305 312 312 321 315 297 323 323 319 308 287 290 293 281
35 34 29 20 16 35 82 105 129 137 118 47 10 4 337 0 299 347 331 348 358 360 337 330 298 321 302 308 314 300 331 321 304 313 300 334 326 276 325 320 314 302 305 312 307
34 31 29 21 34 55 86 100 125 145 131 330 345 339 283 283 32 347 330 318 327 352 316 302 311 277 249 273 326 327 157 307 293 3 314 44 281 296 349 347 335 330 322 317 312
27 26 30 29 46 59 71 78 155 199 294 307 320 332 299 259 252 316 322 257 334 350 327 308 299 244 249 50 349 342 256 246 299 244 261 55 289 312 334 335 322 319 317 314 307
12 12 23 33 56 53 26 6 318 275 282 305 281 299 261 245 236 327 309 249 294 347 339 336 8 9 7 74 268 271 236 252 261 287 70 349 276 303 325 320 310 309 304 304 303
354 355 4 28 63 53 41 29 17 12 315 278 276 274 286 235 290 295 316 258 269 327 351 340 39 311 258 236 250 259 276 272 272 217 331 268 273 301 322 303 295 293 303 311 313
356 337 349 51 74 32 6 14 9 324 295 286 268 265 265 266 287 287 258 204 218 308 344 12 292 261 302 311 318 326 310 299 295 246 287 308 289 303 310 278 292 318 327 331 333
355 345 337 130 42 18 23 359 349 325 311 299 254 232 245 249 253 275 267 225 178 253 275 187 254 287 305 300 309 294 330 308 276 310 183 300 294 315 303 306 330 358 353 351 352
359 350 220 202 94 64 31 15 333 322 55 281 175 285 248 240 268 292 263 221 188 222 241 228 254 306 306 326 356 294 329 316 320 340 300 89 292 322 284 304 297 340 349 352 6
359 351 239 190 138 22 345 331 313 326 50 184 69 36 333 245 287 291 197 185 201 219 162 253 320 291 65 326 358 261 313 285 279 283 8 224 267 321 344 322 314 320 340 342 10
347 346 225 161 154 347 330 321 297 46 356 19 68 347 348 296 345 20 312 267 273 238 255 255 279 58 128 279 16 302 342 326 346 56 37 243 92 270 298 281 315 329 334 353 15
339 331 236 208 202 314 350 350 48 98 348 2 346 332 351 346 5 19 346 359 321 335 325 339 173 92 39 355 29 21 28 328 349 358 232 1 315 264 283 325 302 321 322 355 26
337 320 150 145 258 338 354 56 73 310 9 48 323 323 64 13 345 359 6 349 2 36 336 354 330 49 345 102 293 314 139 167 287 276 292 276 240 250 264 292 316 339 355 40 34
350 97 147 157 19 352 8 66 273 2 348 359 345 37 353 349 346 14 343 291 47 31 12 349 266 327 306 98 114 296 3 246 59 258 312 246 289 302 271 309 343 329 18 15 8
22 85 103 35 336 169 73 229 182 85 115 51 65 12 331 336 10 11 299 289 349 99 127 242 292 250 259 359 343 68 197 201 11 304 273 270 258 256 266 275 327 341 5 356 356
62 75 111 302 303 14 118 249 343 345 94 128 81 294 336 332 326 291 265 307 258 306 295 113 136 272 23 290 291 324 332 47 149 201 273 292 258 264 270 276 265 271 3 352 342
26 48 43 316 4 25 48 7 323 352 349 214 146 145 202 294 276 273 244 250 345 21 343 271 193 281 255 275 262 201 207 153 137 279 245 267 281 277 187 213 136 338 324 326 331
2 340 25 347 68 343 323 297 278 322 344 359 47 16 310 296 334 239 288 325 314 13 322 221 277 335 311 343 6 117 250 231 215 219 223 272 274 270 319 324 316 304 315 327 324
7 3 344 50 89 89 13 305 334 320 114 39 287 325 15 318 201 287 291 292 310 305 295 225 198 189 255 261 261 289 284 277 227 263 279 265 277 279 264 285 303 300 311 311 308
22 37 12 318 332 332 199 323 331 353 340 6 8 11 308 286 274 261 293 299 278 282 262 155 243 222 243 262 264 268 279 284 274 266 266 281 272 282 287 219 263 301 318 318 313
38 7 344 304 305 320 17 358 356 342 295 321 321 303 298 275 238 280 274 252 247 267 246 211 257 244 269 270 269 277 275 275 276 275 245 266 279 301 324 330 314 315 311 304 304
27 360 330 288 329 8 2 327 310 341 298 351 342 326 309 267 303 295 287 273 265 263 279 208 214 195 271 268 285 275 251 248 261 261 242 260 281 11 323 313 304 309 309 302 299
Wind_Speed_850mb
20 17 18 19 20 18 18 20 18 14 8 17 20 18 21 23 24 21 21 20 22 27 31 29 18 15 8 12 9 7 9 1 6 13 9 17 18 39 32 37 23 31 22 22 24
22 17 18 19 21 22 21 19 17 13 14 20 19 13 12 17 23 31 23 24 28 35 38 45 52 26 10 10 6 10 8 12 9 6 10 4 9 20 24 41 30 39 32 35 35
24 17 17 19 22 23 22 17 15 14 19 20 15 7 13 15 14 19 25 28 30 36 34 40 41 24 12 13 23 9 5 7 12 19 18 10 6 8 5 14 38 33 36 41 37
26 20 18 20 22 23 19 13 14 16 18 16 9 8 14 15 7 17 21 23 29 26 29 38 42 29 11 12 23 4 14 9 21 34 30 20 36 10 16 37 45 40 37 35 38
28 23 20 21 24 23 15 11 15 19 18 14 10 12 12 7 6 13 21 21 21 23 28 35 37 25 11 15 33 3 10 38 53 59 55 48 37 44 35 69 58 50 41 45 40
27 23 22 24 24 20 12 12 16 17 14 10 11 18 8 5 9 14 15 26 33 11 19 19 15 21 14 19 2 14 38 43 41 49 46 20 36 25 37 42 41 46 49 53 52
25 24 25 27 24 16 14 14 13 11 7 5 12 21 8 8 3 8 18 24 22 24 20 22 18 10 12 14 13 16 18 25 34 25 12 25 19 8 41 51 48 47 48 41 43
23 24 25 28 22 16 13 12 11 8 2 6 14 23 10 6 6 5 11 14 19 10 24 25 24 26 13 13 13 12 3 6 15 11 22 4 19 18 40 56 59 53 54 65 68
20 21 22 24 20 17 12 6 4 5 6 13 17 15 11 6 9 8 17 9 20 20 26 35 36 31 16 5 11 8 10 11 13 16 10 9 19 13 43 50 54 67 76 71 74
17 14 17 18 15 18 19 12 14 14 18 25 23 16 6 11 7 22 10 11 18 20 31 37 9 2 8 10 10 15 9 12 14 12 8 6 19 16 32 45 53 65 76 80 76
17 12 9 10 9 14 23 19 27 5 20 31 36 31 40 6 20 29 32 21 14 13 6 16 12 10 14 17 23 15 13 16 14 8 10 6 21 27 22 46 53 61 56 59 72
25 10 7 3 3 8 15 20 26 26 22 38 41 43 41 37 33 44 10 17 4 3 11 14 7 10 21 17 17 23 17 31 21 7 3 12 38 20 15 18 28 35 43 41 57
32 14 1 6 4 12 20 18 16 29 9 25 14 21 27 22 38 40 26 18 6 1 10 6 19 27 21 19 23 19 18 20 16 11 3 9 26 24 23 4 20 34 42 36 44
35 17 4 8 5 17 24 23 31 29 8 12 5 6 14 24 12 24 24 23 4 13 12 9 15 15 21 9 15 6 21 12 24 17 7 9 33 15 16 12 9 30 44 44 59
33 18 3 7 7 12 21 20 22 15 6 4 6 13 16 10 26 21 21 14 14 16 6 21 8 9 8 4 6 8 22 15 15 7 1 6 13 11 11 11 17 23 39 46 54
31 16 4 12 5 15 21 26 9 9 5 7 8 10 9 9 13 29 6 16 21 7 5 6 8 6 6 6 5 15 16 13 6 4 5 2 4 10 6 13 15 33 43 36 49
29 14 8 12 7 16 23 6 9 7 9 11 9 11 9 14 14 21 13 13 7 11 6 7 2 3 16 12 10 20 13 9 11 9 8 4 16 16 10 11 9 15 34 43 49
28 8 7 12 1 15 20 9 7 3 8 9 9 13 9 20 14 21 18 17 12 7 4 7 11 5 13 6 8 10 8 7 10 6 27 9 11 8 11 21 11 13 27 37 42
22 2 9 6 9 14 4 9 2 6 8 8 10 9 11 26 13 16 14 6 9 13 6 9 7 13 6 3 6 9 4 7 0 6 5 7 11 13 16 14 12 30 34 39 48
13 9 8 6 13 1 9 5 8 4 4 5 7 6 9 10 12 15 7 6 4 4 7 6 14 11 0 11 5 4 7 5 5 6 9 9 10 15 12 12 14 15 21 35 46
12 6 8 6 9 2 5 3 7 27 4 4 2 4 4 6 6 7 10 17 1 7 4 5 6 9 7 5 16 10 6 6 6 6 6 8 10 8 28 11 15 8 19 35 49
15 6 7 10 6 5 5 7 16 18 19 4 6 4 3 7 7 6 10 6 34 13 7 5 6 8 14 35 20 12 13 7 7 10 11 15 25 24 5 7 7 12 33 45 56
19 13 15 8 6 7 12 9 5 12 13 9 4 7 4 5 8 7 13 19 27 16 7 6 4 8 20 12 10 2 8 10 7 4 13 13 14 13 27 6 10 24 43 46 52
16 9 12 15 11 5 9 10 13 28 6 13 2 6 7 5 7 14 25 14 31 41 38 10 10 17 24 29 9 27 34 31 12 11 25 32 36 46 15 12 22 46 43 40 60
18 8 13 9 10 17 6 5 9 12 14 21 10 11 9 9 9 14 9 17 17 40 6 8 14 13 21 29 23 31 39 47 34 34 28 39 36 33 16 12 27 34 44 72 79
11 15 16 23 27 17 14 10 10 14 5 8 9 16 12 11 11 10 8 9 17 13 13 5 13 9 17 25 28 41 41 44 43 26 12 14 32 15 10 22 39 52 58 74 72
20 17 7 13 13 7 5 10 12 19 15 29 20 11 10 5 26 42 55 63 50 24 31 10 7 4 21 13 23 20 27 14 10 8 8 16 29 13 20 28 52 63 72 80 66
Wind_Direction_850mb
26 33 39 43 42 36 20 16 16 16 73 126 120 103 84 66 48 53 74 74 44 30 19 12 13 0 299 273 245 170 65 18 337 331 269 351 13 350 348 3 4 352 357 352 3
25 34 38 40 34 27 21 25 32 47 110 129 127 106 64 33 49 56 86 67 38 22 25 20 12 7 331 288 216 112 105 219 221 251 264 181 21 327 341 337 335 329 311 322 321
32 39 36 34 27 20 20 31 52 80 120 132 130 92 17 16 73 63 74 62 42 26 22 15 8 21 48 20 19 336 174 188 286 306 301 318 229 291 241 295 296 296 302 304 312
39 44 40 29 20 16 18 40 72 104 128 135 112 37 16 30 94 49 75 53 36 25 18 13 21 23 23 356 356 5 322 349 318 325 329 313 315 285 265 269 284 276 282 291 288
39 42 41 26 13 11 25 67 94 115 123 114 81 24 25 47 56 64 45 27 27 32 7 3 22 12 0 333 348 59 323 320 319 319 321 320 311 291 280 288 283 281 283 294 280
39 42 31 19 11 14 54 97 117 119 118 92 40 22 39 27 30 39 5 6 0 333 7 358 351 341 317 314 334 298 310 305 312 312 321 315 297 323 323 319 308 287 290 293 281
35 34 29 20 16 35 82 105 129 137 118 47 10 4 337 0 299 347 331 348 358 360 337 330 298 321 302 308 314 300 331 321 304 313 300 334 326 276 325 320 314 302 305 312 307
34 31 29 21 34 55 86 100 125 145 131 330 345 339 283 283 32 347 330 318 327 352 316 302 311 277 249 273 326 327 157 307 293 3 314 44 281 296 349 347 335 330 322 317 312
27 26 30 29 46 59 71 78 155 199 294 307 320 332 299 259 252 316 322 257 334 350 327 308 299 244 249 50 349 342 256 246 299 244 261 55 289 312 334 335 322 319 317 314 307
12 12 23 33 56 53 26 6 318 275 282 305 281 299 261 245 236 327 309 249 294 347 339 336 8 9 7 74 268 271 236 252 261 287 70 349 276 303 325 320 310 309 304 304 303
354 355 4 28 63 53 41 29 17 12 315 278 276 274 286 235 290 295 316 258 269 327 351 340 39 311 258 236 250 259 276 272 272 217 331 268 273 301 322 303 295 293 303 311 313
356 337 349 51 74 32 6 14 9 324 295 286 268 265 265 266 287 287 258 204 218 308 344 12 292 261 302 311 318 326 310 299 295 246 287 308 289 303 310 278 292 318 327 331 333
355 345 337 130 42 18 23 359 349 325 311 299 254 232 245 249 253 275 267 225 178 253 275 187 254 287 305 300 309 294 330 308 276 310 183 300 294 315 303 306 330 358 353 351 352
359 350 220 202 94 64 31 15 333 322 55 281 175 285 248 240 268 292 263 221 188 222 241 228 254 306 306 326 356 294 329 316 320 340 300 89 292 322 284 304 297 340 349 352 6
359 351 239 190 138 22 345 331 313 326 50 184 69 36 333 245 287 291 197 185 201 219 162 253 320 291 65 326 358 261 313 285 279 283 8 224 267 321 344 322 314 320 340 342 10
347 346 225 161 154 347 330 321 297 46 356 19 68 347 348 296 345 20 312 267 273 238 255 255 279 58 128 279 16 302 342 326 346 56 37 243 92 270 298 281 315 329 334 353 15
339 331 236 208 202 314 350 350 48 98 348 2 346 332 351 346 5 19 346 359 321 335 325 339 173 92 39 355 29 21 28 328 349 358 232 1 315 264 283 325 302 321 322 355 26
337 320 150 145 258 338 354 56 73 310 9 48 323 323 64 13 345 359 6 349 2 36 336 354 330 49 345 102 293 314 139 167 287 276 292 276 240 250 264 292 316 339 355 40 34
350 97 147 157 19 352 8 66 273 2 348 359 345 37 353 349 346 14 343 291 47 31 12 349 266 327 306 98 114 296 3 246 59 258 312 246 289 302 271 309 343 329 18 15 8
22 85 103 35 336 169 73 229 182 85 115 51 65 12 331 336 10 11 299 289 349 99 127 242 292 250 259 359 343 68 197 201 11 304 273 270 258 256 266 275 327 341 5 356 356
62 75 111 302 303 14 118 249 343 345 94 128 81 294 336 332 326 291 265 307 258 306 295 113 136 272 23 290 291 324 332 47 149 201 273 292 258 264 270 276 265 271 3 352 342
26 48 43 316 4 25 48 7 323 352 349 214 146 145 202 294 276 273 244 250 345 21 343 271 193 281 255 275 262 201 207 153 137 279 245 267 281 277 187 213 136 338 324 326 331
2 340 25 347 68 343 323 297 278 322 344 359 47 16 310 296 334 239 288 325 314 13 322 221 277 335 311 343 6 117 250 231 215 219 223 272 274 270 319 324 316 304 315 327 324
7 3 344 50 89 89 13 305 334 320 114 39 287 325 15 318 201 287 291 292 310 305 295 225 198 189 255 261 261 289 284 277 227 263 279 265 277 279 264 285 303 300 311 311 308
22 37 12 318 332 332 199 323 331 353 340 6 8 11 308 286 274 261 293 299 278 282 262 155 243 222 243 262 264 268 279 284 274 266 266 281 272 282 287 219 263 301 318 318 313
38 7 344 304 305 320 17 358 356 342 295 321 321 303 298 275 238 280 274 252 247 267 246 211 257 244 269 270 269 277 275 275 276 275 245 266 279 301 324 330 314 315 311 304 304
27 360 330 288 329 8 2 327 310 341 298 351 342 326 309 267 303 295 287 273 265 263 279 208 214 195 271 268 285 275 251 248 261 261 242 260 281 11 323 313 304 309 309 302 299